Location: Chervonnoye
(48.6000°N, 34.4000°E)
Time: 08:45:13
(UTC+00:00)

KAITUO 1B - Pass Details

Date: 03 December 2021
Orbit: 486 x 507 km, 97.4° (Epoch: 18 January)

Event Time Altitude Azimuth Distance (km) Brightness Sun altitude
Rises 14:13:53 0° 129° (SE) 2,602 ? -4.5°
Reaches altitude 10° 14:16:21 10° 112° (ESE) 1,726 ? -4.8°
Maximum altitude 14:19:06 20° 65° (ENE) 1,228 ? -5.2°
Drops below altitude 10° 14:21:52 10° 17° (NNE) 1,742 ? -5.6°
Sets 14:24:22 0° 0° (N) 2,636 ? -6.0°
